User: anonymous   Login
Location: Waldport
(44.4270°N, 124.0680°W)
Time: 14:08:58
(UTC-08:00)
Language:

Cosmos 1023 Rocket - Orbit

View from above orbital plane
View from above orbital plane
View from above satellite
View from above satellite

Ground track
Ground track

The orbit data is extracted from the following two-line orbital elements,

1 10962U 78063B   18050.55584429  .00000059  00000-0  26370-4 0  9994
2 10962  74.0800 122.2533 0026124 319.0888  40.8307 14.41115104 81507
Epoch (UTC): 19 February 2018 13:20:24
Eccentricity: 0.0026124
inclination: 74.0800°
perigee height: 736 km
apogee height: 773 km
right ascension of ascending node: 122.2533°
argument of perigee: 319.0888°
revolutions per day: 14.41115104
mean anomaly at epoch: 40.8307°
orbit number at epoch: 8150

The dashed part of the orbit path shows where the satellite is in the earth's shadow,  

DLR